Showing default

COSMOS 2167, 21781

Orbit data source: Space-Track

COSMOS 2167, 21781 is a payload satellite owned by UNKS RF (CIS) in LEO that was launched on Tue, 12 Nov 1991 UTC via a TSIKLON-3 launch vehicle from the Plesetsk Missile And Space Complex (PKMTR). Payload-class satellites include a variety of spacecraft equipped with specific instruments for various scientific and technological missions. These include communications satellites like Starlink; space stations such as the ISS; scientific satellites like the Hubble; Earth observation satellites from companies like Planet Labs, Umbra, and HawkEye 360; GPS; miniature CubeSats for education and research; and military/defense satellites.

Loading next visibility...
Identifier
21781, 1991-077C
Orbit
LEO
Country
Flag of CISCIS
Related business
Manufacturer
NPO PM
Mission
Defense Communications
Bus & Motor
STRELA-3, Unknown motor
Mass
225 kg wet, 225 kg dry
Launch date (UTC)
1991-11-12 (34 years ago)
Launch vehicle
TSIKLON-3
Launch site
Plesetsk Missile And Space Complex (PKMTR)
Object type
Payload
Rocket body
Debris
Shape & HBR
Cyl, 0.8 m
Radar Cross Section
1.257 m², Large (>1 m²)

Expand to show TLE details & history
Last TLE update: 18 hours ago

TLE from 18 hours ago
0 COSMOS 2167
1 21781U 91077C   25258.97307633  .00000042  00000-0  16858-3 0  9990
2 21781  82.6031  55.6988 0006630 353.0903 125.0261 12.64281567561292
Epoch: 2025-09-15T23:21Z
TLE epoch observation values (Epoch: 2025-09-15T23:21:13.794Z)
Latitude
61.03091°
Longitude
-123.27289°
Altitude
1,418.668 km
Speed
7.156 km/s
True Right ascension
14h 48m 49s
True Declination
60° 53' 50"
Sunlit
Object was in daylight at epoch
Visualization orbit readout
Latitude
Unknown
Longitude
Unknown
Altitude
Unknown
Speed
Unknown
Apparent Right ascension
Unknown
Apparent Declination
Unknown
Sunlit
N/A
Visualization observer readout
Local Sidereal Time
09:56:27
Azimuth
Unknown
Elevation
Unknown
Doppler factor
Unknown
Orbital elements
Apogee altitude
1,407.798 km
Perigee altitude
1,397.48 km
Semi-major axis
7,780.776 km
Eccentricity
0.00066
Inclination
82.6031°
RAAN
55.6988°
Arg. of periapsis
353.0903°
True anomaly
125.08828°
Mean anomaly
125.0261°
Eccentric anomaly
125.0572°
Mean motion
3.16234 °/min
Orbital period
113.84 mins
BSTAR
0.00016858
Loading maneuver chart data...
Computing Atmospheric mass density...
Loading historical data...
Loading historical data...
Loading historical data...
Loading historical data...
Loading historical data...
Loading historical data...
Loading historical data...

Documentation

Showing up to 5 results
|